VLG81HH LEBL-LEZL

Flight info

Callsign VLG81HH
Flight time 1h 13m
Altitude 31000
Route SENIA DCT DORMI DCT CRETA DCT NEXAS DCT DISVU DCT ADUXO N975 CJN/N0362F130 N975 GOTOR DCT KAMPO DCT MONTO DCT MOLIN DCT HIJ
Aircraft A320/M-SDE3FGHIRWY/LB1

Departure

Time 2026-04-28 13:36
Airport Josep Tarradellas Barcelona-El Prat Airport (LEBL)

Arrival

Time 2026-04-28 14:49
Airport Seville Airport (LEZL)
Time Latitude Longitude Altitude Speed Heading
2026-04-28 13:16 41.29282 2.07856 19 ft 0 kts 65°
2026-04-28 13:29 41.29284 2.07862 19 ft 2 kts 65°
2026-04-28 13:29 41.29292 2.07896 21 ft 5 kts 88°
2026-04-28 13:29 41.29264 2.07937 19 ft 8 kts 152°
2026-04-28 13:30 41.29259 2.08004 19 ft 9 kts 67°
2026-04-28 13:30 41.29291 2.08098 19 ft 13 kts 65°
2026-04-28 13:30 41.29334 2.08222 19 ft 16 kts 65°
2026-04-28 13:30 41.29371 2.08352 19 ft 14 kts 97°
2026-04-28 13:31 41.29186 2.08486 22 ft 19 kts 155°
2026-04-28 13:31 41.29054 2.08565 18 ft 19 kts 153°
2026-04-28 13:31 41.28943 2.08633 19 ft 18 kts 155°
2026-04-28 13:32 41.28860 2.08712 17 ft 14 kts 99°
2026-04-28 13:32 41.28889 2.08807 17 ft 12 kts 65°
2026-04-28 13:32 41.28930 2.08926 16 ft 16 kts 65°
2026-04-28 13:32 41.28981 2.09074 18 ft 19 kts 66°
2026-04-28 13:33 41.29040 2.09249 18 ft 22 kts 64°
2026-04-28 13:33 41.29109 2.09451 18 ft 25 kts 65°
2026-04-28 13:33 41.29180 2.09657 18 ft 26 kts 65°
2026-04-28 13:33 41.29259 2.09889 17 ft 28 kts 65°
2026-04-28 13:34 41.29267 2.10041 15 ft 12 kts 112°
2026-04-28 13:34 41.29240 2.10136 15 ft 12 kts 111°
2026-04-28 13:34 41.29252 2.10239 14 ft 12 kts 65°
2026-04-28 13:34 41.29206 2.10279 16 ft 10 kts 229°
2026-04-28 13:35 41.29160 2.10148 17 ft 36 kts 245°
2026-04-28 13:35 41.28957 2.09555 21 ft 101 kts 245°
2026-04-28 13:35 41.28603 2.08528 36 ft 144 kts 245°
2026-04-28 13:35 41.28187 2.07312 499 ft 144 kts 245°
2026-04-28 13:36 41.27584 2.06271 1013 ft 145 kts 209°
2026-04-28 13:36 41.26599 2.05975 1471 ft 150 kts 177°
2026-04-28 13:36 41.25528 2.05966 1896 ft 157 kts 182°
2026-04-28 13:36 41.24391 2.05928 2190 ft 170 kts 182°
2026-04-28 13:37 41.23158 2.05888 2427 ft 184 kts 182°
2026-04-28 13:37 41.21847 2.05842 2695 ft 192 kts 183°
2026-04-28 13:37 41.20531 2.05350 3011 ft 208 kts 214°
2026-04-28 13:37 41.19599 2.03834 3410 ft 224 kts 249°
2026-04-28 13:38 41.19090 2.01793 3927 ft 242 kts 252°
2026-04-28 13:38 41.18559 1.99587 4508 ft 259 kts 252°
2026-04-28 13:38 41.17997 1.97262 5261 ft 268 kts 252°
2026-04-28 13:38 41.17418 1.94882 6156 ft 272 kts 252°
2026-04-28 13:39 41.17065 1.93439 6689 ft 274 kts 252°
2026-04-28 13:39 41.16471 1.91021 7553 ft 278 kts 251°
2026-04-28 13:39 41.15868 1.88573 8395 ft 281 kts 251°
2026-04-28 13:39 41.15255 1.86088 9212 ft 285 kts 251°
2026-04-28 13:40 41.14633 1.83574 10020 ft 288 kts 251°
2026-04-28 13:40 41.13991 1.80981 10527 ft 303 kts 251°
2026-04-28 13:40 41.13306 1.78211 10916 ft 320 kts 251°
2026-04-28 13:40 41.12604 1.75377 11269 ft 337 kts 251°
2026-04-28 13:41 41.11844 1.72305 11601 ft 353 kts 251°
2026-04-28 13:41 41.11076 1.69210 12123 ft 362 kts 251°
2026-04-28 13:41 41.10282 1.66021 12790 ft 365 kts 251°
2026-04-28 13:41 41.09743 1.63863 13239 ft 367 kts 251°
2026-04-28 13:42 41.08668 1.59570 14085 ft 372 kts 251°
2026-04-28 13:42 41.08118 1.57377 14504 ft 374 kts 251°
2026-04-28 13:42 41.07292 1.54077 15112 ft 378 kts 251°
2026-04-28 13:42 41.06463 1.50760 15694 ft 381 kts 251°
2026-04-28 13:43 41.05626 1.47414 16270 ft 384 kts 251°
2026-04-28 13:43 41.04779 1.44029 16852 ft 388 kts 251°
2026-04-28 13:43 41.03926 1.40629 17435 ft 391 kts 251°
2026-04-28 13:43 41.03060 1.37189 18015 ft 395 kts 251°
2026-04-28 13:44 41.02186 1.33737 18593 ft 398 kts 251°
2026-04-28 13:44 41.01301 1.30248 19183 ft 402 kts 251°
2026-04-28 13:44 41.00406 1.26729 19749 ft 405 kts 251°
2026-04-28 13:44 40.99504 1.23175 20323 ft 408 kts 251°
2026-04-28 13:45 40.98597 1.19594 20846 ft 412 kts 251°
2026-04-28 13:45 40.97684 1.15988 21335 ft 415 kts 251°
2026-04-28 13:45 40.96767 1.12371 21801 ft 418 kts 251°
2026-04-28 13:45 40.95835 1.08704 22249 ft 421 kts 251°
2026-04-28 13:46 40.94898 1.05032 22679 ft 423 kts 251°
2026-04-28 13:46 40.93947 1.01328 23098 ft 426 kts 251°
2026-04-28 13:46 40.92987 0.97608 23504 ft 429 kts 251°
2026-04-28 13:46 40.92023 0.93869 23897 ft 431 kts 251°
2026-04-28 13:47 40.91053 0.90101 24278 ft 434 kts 251°
2026-04-28 13:47 40.90083 0.86323 24647 ft 436 kts 251°
2026-04-28 13:47 40.89101 0.82511 25001 ft 439 kts 251°
2026-04-28 13:47 40.88114 0.78689 25342 ft 441 kts 251°
2026-04-28 13:48 40.87274 0.74782 25703 ft 443 kts 259°
2026-04-28 13:48 40.86907 0.70733 26052 ft 446 kts 268°
2026-04-28 13:48 40.86925 0.66627 26391 ft 448 kts 270°
2026-04-28 13:48 40.86971 0.62497 26721 ft 451 kts 270°
2026-04-28 13:49 40.87008 0.58338 27050 ft 453 kts 270°
2026-04-28 13:49 40.87036 0.54114 27366 ft 455 kts 270°
2026-04-28 13:49 40.87060 0.49922 27683 ft 458 kts 270°
2026-04-28 13:49 40.87081 0.45705 27983 ft 460 kts 270°
2026-04-28 13:50 40.87098 0.41475 28277 ft 462 kts 270°
2026-04-28 13:50 40.87115 0.37227 28583 ft 463 kts 270°
2026-04-28 13:50 40.87133 0.32976 28996 ft 462 kts 270°
2026-04-28 13:50 40.87153 0.28746 29428 ft 461 kts 270°
2026-04-28 13:51 40.87171 0.24503 29840 ft 460 kts 270°
2026-04-28 13:51 40.87188 0.20285 30239 ft 459 kts 270°
2026-04-28 13:51 40.87204 0.16070 30633 ft 458 kts 270°
2026-04-28 13:51 40.87216 0.11865 30934 ft 458 kts 270°
2026-04-28 13:52 40.87238 0.03409 31010 ft 462 kts 270°
2026-04-28 13:52 40.87257 -0.05069 31009 ft 462 kts 270°
2026-04-28 13:53 40.87257 -0.13554 31009 ft 462 kts 270°
2026-04-28 13:53 40.87255 -0.22049 31009 ft 462 kts 270°
2026-04-28 13:54 40.87255 -0.30523 31009 ft 462 kts 270°
2026-04-28 13:54 40.87251 -0.39020 31008 ft 462 kts 270°
2026-04-28 13:55 40.87237 -0.47500 31008 ft 462 kts 269°
2026-04-28 13:55 40.87211 -0.56037 31014 ft 462 kts 269°
2026-04-28 13:56 40.87178 -0.64477 31019 ft 462 kts 269°
2026-04-28 13:56 40.87146 -0.73022 31018 ft 462 kts 269°
2026-04-28 13:57 40.86441 -0.81421 31014 ft 461 kts 254°
2026-04-28 13:57 40.84314 -0.89401 30999 ft 461 kts 250°
2026-04-28 13:58 40.82113 -0.97348 31001 ft 461 kts 250°
2026-04-28 13:58 40.79910 -1.05298 31003 ft 461 kts 250°
2026-04-28 13:59 40.77694 -1.13246 31011 ft 461 kts 250°
2026-04-28 13:59 40.75467 -1.21184 31010 ft 461 kts 249°
2026-04-28 14:00 40.73241 -1.29113 31015 ft 461 kts 249°
2026-04-28 14:00 40.71020 -1.37045 31007 ft 461 kts 249°
2026-04-28 14:01 40.68789 -1.44974 31009 ft 461 kts 249°
2026-04-28 14:01 40.66553 -1.52898 31014 ft 461 kts 249°
2026-04-28 14:02 40.64305 -1.60814 31019 ft 462 kts 249°
2026-04-28 14:02 40.62057 -1.68719 31024 ft 461 kts 249°
2026-04-28 14:03 40.59791 -1.76676 31026 ft 461 kts 249°
2026-04-28 14:03 40.57542 -1.84529 31024 ft 461 kts 249°
2026-04-28 14:04 40.55256 -1.92480 31022 ft 461 kts 249°
2026-04-28 14:04 40.52987 -2.00359 31018 ft 461 kts 249°
2026-04-28 14:05 40.50711 -2.08232 31009 ft 461 kts 249°
2026-04-28 14:05 40.48424 -2.16106 31008 ft 461 kts 249°
2026-04-28 14:06 40.46134 -2.23969 31007 ft 461 kts 249°
2026-04-28 14:06 40.43842 -2.31832 31004 ft 461 kts 249°
2026-04-28 14:07 40.41541 -2.39684 31002 ft 461 kts 249°
2026-04-28 14:07 40.39240 -2.47530 31000 ft 461 kts 249°
2026-04-28 14:08 40.36993 -2.55404 30999 ft 461 kts 253°
2026-04-28 14:08 40.35543 -2.62131 30997 ft 461 kts 254°
2026-04-28 14:09 40.33495 -2.71578 31002 ft 461 kts 254°
2026-04-28 14:09 40.31740 -2.79639 31005 ft 461 kts 254°
2026-04-28 14:10 40.29977 -2.87720 31003 ft 461 kts 254°
2026-04-28 14:10 40.28202 -2.95842 31004 ft 461 kts 253°
2026-04-28 14:11 40.26424 -3.03910 31005 ft 461 kts 253°
2026-04-28 14:11 40.24643 -3.11973 31006 ft 461 kts 253°
2026-04-28 14:12 40.22853 -3.20038 31009 ft 461 kts 253°
2026-04-28 14:12 40.21053 -3.28094 31010 ft 461 kts 253°
2026-04-28 14:13 40.19283 -3.36038 30880 ft 439 kts 253°
2026-04-28 14:13 40.17618 -3.43516 30895 ft 431 kts 252°
2026-04-28 14:14 40.15922 -3.51047 30900 ft 431 kts 252°
2026-04-28 14:14 40.14220 -3.58568 30901 ft 432 kts 252°
2026-04-28 14:15 40.12807 -3.64820 30905 ft 431 kts 252°
2026-04-28 14:15 40.10142 -3.71767 30905 ft 430 kts 232°
2026-04-28 14:16 40.05805 -3.77106 30895 ft 432 kts 215°
2026-04-28 14:16 40.00813 -3.81477 30887 ft 432 kts 215°
2026-04-28 14:17 39.95797 -3.85882 30880 ft 432 kts 215°
2026-04-28 14:17 39.90807 -3.90266 30886 ft 432 kts 215°
2026-04-28 14:18 39.85816 -3.94638 30883 ft 432 kts 215°
2026-04-28 14:18 39.80826 -3.99001 30880 ft 433 kts 215°
2026-04-28 14:19 39.75821 -4.03362 30874 ft 433 kts 214°
2026-04-28 14:19 39.70825 -4.07724 30879 ft 433 kts 214°
2026-04-28 14:20 39.65819 -4.12073 30872 ft 433 kts 214°
2026-04-28 14:20 39.60806 -4.16412 30869 ft 433 kts 214°
2026-04-28 14:21 39.55795 -4.20749 30870 ft 433 kts 214°
2026-04-28 14:21 39.50785 -4.25088 30871 ft 434 kts 214°
2026-04-28 14:22 39.45759 -4.29437 30868 ft 435 kts 214°
2026-04-28 14:22 39.40721 -4.33774 30864 ft 435 kts 214°
2026-04-28 14:23 39.35678 -4.38115 30863 ft 436 kts 214°
2026-04-28 14:23 39.30604 -4.42476 30871 ft 436 kts 214°
2026-04-28 14:24 39.25536 -4.46811 30872 ft 436 kts 214°
2026-04-28 14:24 39.20503 -4.51111 30878 ft 437 kts 214°
2026-04-28 14:25 39.15396 -4.55473 30877 ft 438 kts 214°
2026-04-28 14:25 39.10301 -4.59816 30889 ft 439 kts 214°
2026-04-28 14:26 39.05205 -4.64154 30891 ft 439 kts 214°
2026-04-28 14:26 39.00106 -4.68484 30883 ft 440 kts 214°
2026-04-28 14:27 38.94999 -4.72819 30891 ft 440 kts 214°
2026-04-28 14:27 38.89886 -4.77151 30896 ft 440 kts 214°
2026-04-28 14:28 38.84769 -4.81474 30898 ft 440 kts 214°
2026-04-28 14:28 38.79660 -4.85777 30901 ft 440 kts 214°
2026-04-28 14:29 38.74541 -4.90088 30896 ft 440 kts 214°
2026-04-28 14:29 38.69431 -4.94392 30902 ft 439 kts 214°
2026-04-28 14:30 38.64316 -4.98686 30898 ft 440 kts 213°
2026-04-28 14:30 38.59198 -5.02964 30898 ft 440 kts 213°
2026-04-28 14:31 38.54047 -5.07266 30901 ft 439 kts 213°
2026-04-28 14:31 38.49134 -5.11807 30899 ft 439 kts 221°
2026-04-28 14:32 38.44495 -5.16960 30901 ft 439 kts 221°
2026-04-28 14:32 38.39881 -5.22042 30680 ft 437 kts 221°
2026-04-28 14:33 38.37600 -5.24548 30437 ft 438 kts 221°
2026-04-28 14:33 38.35298 -5.27075 29713 ft 438 kts 221°
2026-04-28 14:33 38.32935 -5.29668 28451 ft 444 kts 221°
2026-04-28 14:33 38.30600 -5.32230 27373 ft 445 kts 221°
2026-04-28 14:34 38.25894 -5.37392 25522 ft 441 kts 220°
2026-04-28 14:34 38.23582 -5.39928 24775 ft 436 kts 220°
2026-04-28 14:34 38.21294 -5.42437 24032 ft 432 kts 220°
2026-04-28 14:35 38.19028 -5.44922 23263 ft 429 kts 220°
2026-04-28 14:35 38.16775 -5.47386 22484 ft 424 kts 220°
2026-04-28 14:35 38.14556 -5.49806 21774 ft 418 kts 220°
2026-04-28 14:35 38.12360 -5.52197 21069 ft 412 kts 220°
2026-04-28 14:36 38.10194 -5.54554 20365 ft 408 kts 220°
2026-04-28 14:36 38.08046 -5.56891 19664 ft 405 kts 220°
2026-04-28 14:36 38.05911 -5.59216 19006 ft 402 kts 220°
2026-04-28 14:36 38.03796 -5.61519 18374 ft 400 kts 220°
2026-04-28 14:37 38.01692 -5.63806 17686 ft 397 kts 220°
2026-04-28 14:37 37.99609 -5.66068 17088 ft 393 kts 220°
2026-04-28 14:37 37.97532 -5.68321 16496 ft 390 kts 220°
2026-04-28 14:37 37.95483 -5.70542 15923 ft 386 kts 220°
2026-04-28 14:38 37.93458 -5.72734 15335 ft 382 kts 220°
2026-04-28 14:38 37.91445 -5.74913 14742 ft 379 kts 220°
2026-04-28 14:38 37.89450 -5.77072 14132 ft 376 kts 220°
2026-04-28 14:38 37.87464 -5.79220 13494 ft 374 kts 220°
2026-04-28 14:39 37.85496 -5.81344 12837 ft 370 kts 220°
2026-04-28 14:39 37.83542 -5.83450 12179 ft 366 kts 220°
2026-04-28 14:39 37.81615 -5.85522 11534 ft 363 kts 220°
2026-04-28 14:39 37.79694 -5.87584 10883 ft 360 kts 220°
2026-04-28 14:40 37.77805 -5.89615 10542 ft 348 kts 220°
2026-04-28 14:40 37.77188 -5.90279 10497 ft 338 kts 220°
2026-04-28 14:40 37.74424 -5.93253 10278 ft 294 kts 220°
2026-04-28 14:40 37.72907 -5.94884 9934 ft 280 kts 220°
2026-04-28 14:41 37.71424 -5.96478 9764 ft 281 kts 220°
2026-04-28 14:41 37.69937 -5.98077 9640 ft 282 kts 220°
2026-04-28 14:41 37.68426 -5.99698 9505 ft 281 kts 220°
2026-04-28 14:41 37.66961 -6.01273 9377 ft 280 kts 221°
2026-04-28 14:42 37.65513 -6.02948 8972 ft 284 kts 224°
2026-04-28 14:42 37.64112 -6.04701 8619 ft 283 kts 223°
2026-04-28 14:42 37.62632 -6.06378 8239 ft 281 kts 219°
2026-04-28 14:42 37.61095 -6.07893 7888 ft 279 kts 215°
2026-04-28 14:43 37.59523 -6.09238 7351 ft 275 kts 212°
2026-04-28 14:43 37.57861 -6.10473 6718 ft 274 kts 208°
2026-04-28 14:43 37.56161 -6.11543 6131 ft 272 kts 204°
2026-04-28 14:43 37.54417 -6.12471 5556 ft 269 kts 201°
2026-04-28 14:44 37.52664 -6.13270 5219 ft 267 kts 198°
2026-04-28 14:44 37.50893 -6.13954 4927 ft 264 kts 194°
2026-04-28 14:44 37.49114 -6.14503 4648 ft 263 kts 192°
2026-04-28 14:44 37.47343 -6.14914 4162 ft 257 kts 187°
2026-04-28 14:45 37.45601 -6.15178 3942 ft 246 kts 185°
2026-04-28 14:45 37.43888 -6.15229 3419 ft 245 kts 169°
2026-04-28 14:45 37.42441 -6.14267 3171 ft 233 kts 134°
2026-04-28 14:45 37.41874 -6.13160 3058 ft 225 kts 113°
2026-04-28 14:46 37.41681 -6.10580 2920 ft 221 kts 92°
2026-04-28 14:46 37.41705 -6.08665 2742 ft 219 kts 92°
2026-04-28 14:46 37.41720 -6.06731 2471 ft 222 kts 94°
2026-04-28 14:46 37.41730 -6.04793 2188 ft 219 kts 92°
2026-04-28 14:47 37.41740 -6.02936 1928 ft 207 kts 94°
2026-04-28 14:47 37.41748 -6.01176 1662 ft 196 kts 93°
2026-04-28 14:47 37.41755 -5.99483 1386 ft 190 kts 93°
2026-04-28 14:47 37.41760 -5.98423 1243 ft 174 kts 93°
2026-04-28 14:48 37.41767 -5.96998 1023 ft 153 kts 93°
2026-04-28 14:48 37.41773 -5.95709 763 ft 145 kts 92°
2026-04-28 14:48 37.41778 -5.94433 663 ft 148 kts 91°
2026-04-28 14:48 37.41784 -5.93148 439 ft 146 kts 95°
2026-04-28 14:49 37.41784 -5.91863 244 ft 147 kts 92°
2026-04-28 14:49 37.41793 -5.90635 97 ft 136 kts 94°
2026-04-28 14:49 37.41790 -5.89738 98 ft 66 kts 85°
2026-04-28 14:49 37.41793 -5.89307 100 ft 25 kts 89°
2026-04-28 14:50 37.41856 -5.89265 100 ft 7 kts 327°
2026-04-28 14:50 37.41909 -5.89304 99 ft 11 kts 334°
2026-04-28 14:50 37.41981 -5.89355 99 ft 13 kts 320°
2026-04-28 14:50 37.42052 -5.89445 99 ft 16 kts 313°
2026-04-28 14:51 37.42124 -5.89538 97 ft 16 kts 314°
2026-04-28 14:51 37.42210 -5.89649 94 ft 16 kts 316°
2026-04-28 14:51 37.42267 -5.89743 94 ft 12 kts 266°
2026-04-28 14:51 37.42212 -5.89824 94 ft 9 kts 225°
2026-04-28 14:52 37.42221 -5.89885 94 ft 9 kts 317°
2026-04-28 14:52 37.42245 -5.89914 97 ft 0 kts 315°